Hot Springs, VA

3:05 PM EDT on September 21, 2017 (GMT -0400)
Ingalls

Weather History for KHSP - January, 2002

Change the Weather History Date:

Tuesday, January 8, 2002

  Actual Average Record
Temperature  
Mean Temperature 19 °F -  
Max Temperature 26 °F 34 °F 60 °F (1998)
Min Temperature 12 °F 20 °F -6 °F (2015)
Degree Days  
Heating Degree Days 46    
Moisture  
Dew Point 13 °F    
Average Humidity 82    
Maximum Humidity 100    
Minimum Humidity 55    
Precipitation  
Precipitation 0.00 in - - ()
Sea Level Pressure  
Sea Level Pressure 29.87 in    
Wind  
Wind Speed 21 mph (WNW)    
Max Wind Speed 31 mph    
Max Gust Speed 43 mph    
Visibility 10 miles    
Events      
Averages and records for this station are not official NWS values.
T = Trace of Precipitation, MM = Missing Value Source: NWS Daily Summary

Daily Weather History Graph

Daily Weather History Graph

Search for Another Location

Airport or City:

Trip Planner

Search our weather history database for the weather conditions in past years. The results will help you decide how hot, cold, wet, or windy it might be!

Date:

Astronomy

Jan. 08, 2002 Rise Set
Actual Time 7:35 AM EST 5:16 PM EST
Civil Twilight 7:06 AM EST 5:45 PM EST
Nautical Twilight 6:33 AM EST 6:18 PM EST
Astronomical Twilight 6:01 AM EST 6:50 PM EST
Moon 2:46 AM EST (1/8) 1:36 PM EST (1/8)
Length of Visible Light 10h 39m
Length of Day
9h 41m
Waning Crescent, 23% of the Moon is Illuminated
Jan 8
Waning Crescent
Jan 13
New
Jan 21
First Quarter
Jan 28
Full
Feb 4
Last Quarter

Hourly Weather History & Observations

Time (EST) Temp. Windchill Dew Point Humidity Pressure Visibility Wind Dir Wind Speed Gust Speed Precip Events Conditions
12:01 AM 15.8 °F -1.1 °F 14.0 °F 93% 29.78 in 7.0 mi WNW 19.6 mph 34.5 mph N/A   Overcast
12:21 AM 15.8 °F -0.6 °F 14.0 °F 93% 29.79 in 10.0 mi WNW 18.4 mph 29.9 mph N/A   Overcast
12:41 AM 15.8 °F -2.3 °F 12.2 °F 86% 29.79 in 7.0 mi WNW 23.0 mph 31.1 mph N/A   Overcast
1:01 AM 14.0 °F -6.2 °F 12.2 °F 93% 29.80 in 10.0 mi WNW 27.6 mph 35.7 mph N/A   Overcast
1:21 AM 12.2 °F -7.5 °F 8.6 °F 85% 29.79 in 10.0 mi WNW 24.2 mph 34.5 mph N/A   Mostly Cloudy
1:41 AM 12.2 °F -9.6 °F 8.6 °F 85% 29.80 in 10.0 mi WNW 31.1 mph 42.6 mph N/A   Overcast
2:01 AM 12.2 °F -8.2 °F 8.6 °F 85% 29.81 in 10.0 mi WNW 26.5 mph 36.8 mph N/A   Overcast
2:21 AM 12.2 °F -5.8 °F 8.6 °F 85% 29.80 in 10.0 mi WNW 19.6 mph 34.5 mph N/A   Mostly Cloudy
2:41 AM 12.2 °F -6.7 °F 8.6 °F 85% 29.80 in 10.0 mi NW 21.9 mph 34.5 mph N/A   Scattered Clouds
3:01 AM 12.2 °F -5.8 °F 10.4 °F 92% 29.81 in 10.0 mi WNW 19.6 mph 31.1 mph N/A   Mostly Cloudy
3:21 AM 12.2 °F -4.3 °F 10.4 °F 92% 29.82 in 10.0 mi WNW 16.1 mph 28.8 mph N/A   Mostly Cloudy
3:41 AM 12.2 °F -6.3 °F 10.4 °F 92% 29.84 in 10.0 mi WNW 20.7 mph 25.3 mph N/A   Overcast
4:01 AM 12.2 °F -8.6 °F 10.4 °F 92% 29.84 in 10.0 mi WNW 27.6 mph 34.5 mph N/A   Overcast
4:21 AM 12.2 °F -9.3 °F 10.4 °F 92% 29.83 in 10.0 mi WNW 29.9 mph 34.5 mph N/A   Overcast
4:41 AM 12.2 °F -5.8 °F 10.4 °F 92% 29.83 in 10.0 mi WNW 19.6 mph 34.5 mph N/A   Overcast
5:02 AM 12.2 °F -7.1 °F 10.4 °F 92% 29.84 in 10.0 mi WNW 23.0 mph 29.9 mph N/A   Overcast
5:21 AM 12.2 °F -7.9 °F 10.4 °F 92% 29.83 in 10.0 mi WNW 25.3 mph - N/A   Overcast
5:41 AM 12.2 °F -7.1 °F 10.4 °F 92% 29.84 in 10.0 mi WNW 23.0 mph 29.9 mph N/A   Overcast
6:03 AM 12.2 °F -6.3 °F 10.4 °F 92% 29.85 in 10.0 mi WNW 20.7 mph 26.5 mph N/A   Overcast
6:21 AM 12.2 °F -6.7 °F 10.4 °F 92% 29.86 in 10.0 mi WNW 21.9 mph 27.6 mph N/A   Overcast
6:41 AM 12.2 °F -7.1 °F 10.4 °F 92% 29.86 in 10.0 mi WNW 23.0 mph 28.8 mph N/A   Overcast
7:01 AM 12.2 °F -6.7 °F 10.4 °F 92% 29.87 in 10.0 mi NW 21.9 mph 28.8 mph N/A   Overcast
7:21 AM 12.2 °F -7.1 °F 12.2 °F 100% 29.89 in 10.0 mi WNW 23.0 mph 32.2 mph N/A   Overcast
7:44 AM 12.2 °F -6.3 °F 12.2 °F 100% 29.89 in 10.0 mi WNW 20.7 mph - N/A   Overcast
8:02 AM 12.2 °F -8.2 °F 10.4 °F 92% 29.88 in 10.0 mi WNW 26.5 mph 33.4 mph N/A   Overcast
8:21 AM 12.2 °F -7.5 °F 12.2 °F 100% 29.89 in 10.0 mi WNW 24.2 mph 33.4 mph N/A   Overcast
8:41 AM 14.0 °F -3.9 °F 12.2 °F 93% 29.90 in 10.0 mi WNW 20.7 mph 28.8 mph N/A   Overcast
9:01 AM 14.0 °F -5.5 °F 12.2 °F 93% 29.91 in 10.0 mi WNW 25.3 mph 28.8 mph N/A   Mostly Cloudy
9:21 AM 14.0 °F -3.9 °F 12.2 °F 93% 29.92 in 10.0 mi WNW 20.7 mph 28.8 mph N/A   Mostly Cloudy
9:41 AM 15.8 °F -1.9 °F 14.0 °F 93% 29.92 in 10.0 mi WNW 21.9 mph 28.8 mph N/A   Overcast
10:01 AM 15.8 °F -1.5 °F 15.8 °F 100% 29.93 in 10.0 mi WNW 20.7 mph 25.3 mph N/A   Mostly Cloudy
10:21 AM 17.6 °F 0.9 °F 15.8 °F 93% 29.92 in 10.0 mi WNW 20.7 mph 24.2 mph N/A   Mostly Cloudy
10:41 AM 15.8 °F -1.1 °F 14.0 °F 93% 29.93 in 10.0 mi WNW 19.6 mph 23.0 mph N/A   Overcast
11:01 AM 17.6 °F 1.3 °F 15.8 °F 93% 29.92 in 10.0 mi WNW 19.6 mph 25.3 mph N/A   Overcast
11:21 AM 17.6 °F 4.3 °F 15.8 °F 93% 29.91 in 10.0 mi WNW 12.7 mph 20.7 mph N/A   Scattered Clouds
11:41 AM 19.4 °F 7.2 °F 15.8 °F 86% 29.90 in 10.0 mi WNW 11.5 mph 18.4 mph N/A   Scattered Clouds
12:01 PM 19.4 °F 6.6 °F 15.8 °F 86% 29.89 in 10.0 mi West 12.7 mph - N/A   Scattered Clouds
12:21 PM 21.2 °F 9.5 °F 15.8 °F 80% 29.90 in 10.0 mi West 11.5 mph - N/A   Clear
12:41 PM 21.2 °F 8.3 °F 17.6 °F 86% 29.89 in 10.0 mi WNW 13.8 mph - N/A   Clear
1:03 PM 23.0 °F 11.7 °F 17.6 °F 80% 29.89 in 10.0 mi WNW 11.5 mph - N/A   Clear
1:21 PM 23.0 °F 11.1 °F 17.6 °F 80% 29.89 in 10.0 mi West 12.7 mph - N/A   Clear
1:41 PM 24.8 °F 13.4 °F 17.6 °F 74% 29.89 in 10.0 mi WNW 12.7 mph - N/A   Clear
2:03 PM 24.8 °F 12.4 °F 17.6 °F 74% 29.88 in 10.0 mi WNW 15.0 mph - N/A   Clear
2:21 PM 24.8 °F 11.9 °F 17.6 °F 74% 29.88 in 10.0 mi WNW 16.1 mph - N/A   Clear
2:41 PM 26.6 °F 14.3 °F 15.8 °F 64% 29.88 in 10.0 mi West 16.1 mph - N/A   Clear
3:01 PM 26.6 °F 14.3 °F 17.6 °F 69% 29.87 in 10.0 mi WNW 16.1 mph - N/A   Clear
3:21 PM 26.6 °F 12.7 °F 15.8 °F 64% 29.87 in 10.0 mi WNW 20.7 mph 25.3 mph N/A   Clear
3:41 PM 26.6 °F 13.8 °F 15.8 °F 64% 29.88 in 10.0 mi WNW 17.3 mph - N/A   Clear
4:01 PM 26.6 °F 14.7 °F 14.0 °F 59% 29.88 in 10.0 mi West 15.0 mph - N/A   Clear
4:21 PM 26.6 °F 14.7 °F 14.0 °F 59% 29.87 in 10.0 mi WNW 15.0 mph - N/A   Clear
4:41 PM 26.6 °F 14.3 °F 12.2 °F 55% 29.87 in 10.0 mi West 16.1 mph - N/A   Clear
5:01 PM 26.6 °F 15.7 °F 12.2 °F 55% 29.87 in 10.0 mi West 12.7 mph - N/A   Clear
5:21 PM 24.8 °F 12.9 °F 12.2 °F 59% 29.88 in 10.0 mi West 13.8 mph - N/A   Clear
5:42 PM 24.8 °F 11.9 °F 12.2 °F 59% 29.88 in 10.0 mi West 16.1 mph - N/A   Clear
6:01 PM 24.8 °F 11.5 °F 12.2 °F 59% 29.88 in 10.0 mi West 17.3 mph - N/A   Clear
6:21 PM 23.0 °F 9.2 °F 12.2 °F 63% 29.89 in 10.0 mi West 17.3 mph - N/A   Clear
6:41 PM 23.0 °F 9.6 °F 12.2 °F 63% 29.89 in 10.0 mi West 16.1 mph - N/A   Clear
7:01 PM 23.0 °F 8.0 °F 12.2 °F 63% 29.89 in 10.0 mi West 20.7 mph - N/A   Clear
7:21 PM 23.0 °F 8.3 °F 12.2 °F 63% 29.89 in - West 19.6 mph - N/A   Unknown
7:42 PM 23.0 °F 8.0 °F 12.2 °F 63% 29.88 in 10.0 mi West 20.7 mph - N/A   Clear
8:02 PM 23.0 °F 7.6 °F 12.2 °F 63% 29.88 in 10.0 mi West 21.9 mph 26.5 mph N/A   Clear
8:21 PM 24.8 °F 10.3 °F 12.2 °F 59% 29.88 in 10.0 mi West 20.7 mph - N/A   Clear
8:41 PM 24.8 °F 10.3 °F 12.2 °F 59% 29.87 in 10.0 mi West 20.7 mph - N/A   Clear
9:01 PM 24.8 °F 9.6 °F 12.2 °F 59% 29.87 in 10.0 mi West 23.0 mph 27.6 mph N/A   Clear
9:21 PM 24.8 °F 10.7 °F 12.2 °F 59% 29.86 in 10.0 mi West 19.6 mph - N/A   Clear
9:41 PM 24.8 °F 10.3 °F 12.2 °F 59% 29.86 in 10.0 mi West 20.7 mph - N/A   Clear
10:01 PM 24.8 °F 10.0 °F 12.2 °F 59% 29.86 in 10.0 mi West 21.9 mph - N/A   Clear
10:21 PM 26.6 °F 12.4 °F 12.2 °F 55% 29.85 in 10.0 mi West 21.9 mph 27.6 mph N/A   Clear
10:43 PM 26.6 °F 11.4 °F 12.2 °F 55% 29.85 in 10.0 mi West 25.3 mph 31.1 mph N/A   Clear
11:01 PM 26.6 °F 12.0 °F 12.2 °F 55% 29.85 in 10.0 mi West 23.0 mph 28.8 mph N/A   Clear
11:21 PM 26.6 °F 13.1 °F 10.4 °F 51% 29.85 in 10.0 mi West 19.6 mph 27.6 mph N/A   Clear
11:41 PM 26.6 °F 12.0 °F 12.2 °F 55% 29.85 in 10.0 mi West 23.0 mph 28.8 mph N/A   Clear